Regional Weather Roundup
Issued by NWS

Home | Current Version | Previous Version | Graphics & Text | Print | Product List | Glossary Off
Versions: 1 2 3 4 5 6 7 8 9 10 11 12 13 14 15 16 17 18 19 20 21 22 23 24 25 26 27 28 29 30 31 32 33 34 35 36 37 38 39 40 41 42 43 44 45 46 47 48 49 50

000
ASUS43 KDTX 241001
RWRMI
MICHIGAN HOURLY REGIONAL WEATHER ROUNDUP
NATIONAL WEATHER SERVICE DETROIT/PONTIAC MI
600 AM EDT SUN JUL 24 2016

NOTE: "FAIR" INDICATES FEW OR NO CLOUDS BELOW 12,000 FEET WITH NO
SIGNIFICANT WEATHER AND/OR OBSTRUCTION TO VISIBILITY.

MIZ047>049-052>055-059>063-066>070-074>076-081>083-241100-
SOUTHEAST LOWER MICHIGAN

CITY           SKY/WX    TMP DP  RH WIND       PRES   REMARKS
ADRIAN         CLOUDY    74  71  91 CALM      29.96F
ALMA           CLOUDY    75  70  85 S5        29.94S
ANN ARBOR      CLOUDY    74  70  87 CALM      29.96F
BAD AXE        CLOUDY    70  58  66 S8        29.96F
CARO           CLOUDY    73  57  57 SE5       29.95S
DETROIT CITY   CLOUDY    75  66  73 SE5       29.98F
DETROIT        CLOUDY    77  69  76 SE5       29.97F
FLINT          CLOUDY    80  58  46 S6        29.96F
GROSSE ILE     CLOUDY    78  70  77 SE6       29.96F
HOWELL         CLOUDY    76  64  68 S5        29.96F

CITY           SKY/WX    TMP DP  RH WIND       PRES   REMARKS
JACKSON        LGT RAIN  72  72 100 N5        29.94F
LAMBERTVILLE   CLOUDY    74  69  84 CALM      29.96F
LANSING        CLOUDY    73  69  87 S6        29.94F
LAPEER         FAIR      74  58  58 S5        29.97F
MASON          LGT RAIN  70  67  90 S7        29.95F
MONROE         CLOUDY    78  70  77 CALM      29.95F
MT. CLEMENS    CLOUDY    70  65  84 CALM      29.95F
PONTIAC        CLOUDY    76  61  59 S6        29.97F
PORT HOPE        N/A     73  60  63 S9        29.94F
PORT HURON     MOCLDY    64  63  94 CALM      29.98F
TRI CITIES     CLOUDY    75  63  66 S10       29.94F
MIDLAND        CLOUDY    75  63  67 CALM      29.93S
TROY           CLOUDY    76  62  60 CALM      29.99F
SAGINAW HB     CLOUDY    72  61  68 CALM      29.94F
$$
MIZ043>046-050>051-056>058-064>065-071>073-077>080-241100-
SOUTHWEST LOWER MICHIGAN

CITY           SKY/WX    TMP DP  RH WIND       PRES   REMARKS
BATTLE CREEK   LGT RAIN  70  70 100 N3        29.96F
BENTON HARBOR  CLOUDY    72  69  90 SE6       29.92F
BIG RAPIDS     CLOUDY    73  70  92 CALM      29.92F
COLDWATER      CLOUDY    73  73 100 NE3       29.95F
FREMONT        RAIN      72  72 100 S3        29.92S
HOLLAND        CLOUDY    72  70  93 SE10      29.91F
GRAND RAPIDS   LGT RAIN  73  69  87 S10       29.94F
IONIA          MOCLDY    72  68  86 S5        29.92F
KALAMAZOO      LGT RAIN  72  69  90 CALM      29.94F FOG
LUDINGTON      HVY RAIN  70  69  97 S5        29.90R
MARSHALL       MOCLDY    72  72 100 CALM      29.94F
MOUNT PLEASANT RAIN      73  67  81 CALM      29.93F
MUSKEGON       TSTM      72  70  93 SW7       29.92R
SOUTH HAVEN    CLOUDY    72  72  99 CALM      29.92F
$$
MIZ016>042-241100-
NORTHERN LOWER MICHIGAN

CITY           SKY/WX    TMP DP  RH WIND       PRES   REMARKS
ALPENA         CLOUDY    69  59  70 S5        29.93F
BEAVER ISLAND    N/A     68  68  99 CALM      29.89R
BELLAIRE       CLOUDY    75  64  68 CALM      29.89S
CADILLAC       CLOUDY    72  66  83 S6        29.93S
CHARLEVOIX     CLOUDY    74  63  69 S5        29.91F
FRANKFORT      LGT RAIN  73  68  84 S9G16     29.88S
GAYLORD        CLOUDY    73  59  61 S7        29.93S
GRAYLING       CLOUDY    73  64  74 S3        29.94S
HARBOR SPRINGS CLOUDY    72  64  77 CALM      29.88F
HOUGHTON LAKE  CLOUDY    73  64  73 S8        29.95R
MANISTEE       RAIN      72  68  87 S7        29.89S
OSCODA         CLOUDY    71  61  71 S5        29.94S
PELLSTON       CLOUDY    70  60  70 CALM      29.89R
ROGERS CITY    CLOUDY    71  57  60 S10       29.91F
TRAVERSE CITY  CLOUDY    75  66  73 CALM      29.87S
$$
MIZ007>008-015-241100-
EASTERN UPPER MICHIGAN

CITY           SKY/WX    TMP DP  RH WIND       PRES   REMARKS
KINROSS        LGT RAIN  68  61  78 SE8       29.91S
MACKINAC ISLAN RAIN      68  61  79 S3        29.90R
NEWBERRY       HVY RAIN  65  65  97 CALM      29.89F
S. S. MARIE    LGT RAIN  69  63  81 E3        29.90S
$$
MIZ004>006-011>014-085-241100-
CENTRAL UPPER MICHIGAN

CITY           SKY/WX    TMP DP  RH WIND       PRES   REMARKS
MANISTIQUE     CLOUDY    67  66  97 E3        29.85F
ESCANABA       CLOUDY    70  66  88 SE3       29.80F
MENOMINEE      CLOUDY    72  71  97 SW5       29.82S
SAWYER-GWINN   CLOUDY    65  64  95 S8        29.82F
$$
MIZ001>003-009>011-084-241100-
WESTERN UPPER MICHIGAN

CITY           SKY/WX    TMP DP  RH WIND       PRES   REMARKS
IRON MOUNTAIN  CLOUDY    68  66  93 SE5       29.81F FOG
HOUGHTON       FOG       64  63  96 E6        29.78F VSB 1/4
COPPER HARBOR    N/A     67  66  97 S12G21    29.77F
IRONWOOD       CLOUDY    70  68  94 S20G26    29.72F THUNDER
$$

ABBREVIATIONS USED IN REMARKS
   TC - TEMPERATURE IN CELSIUS
  WCI - WIND CHILL INDEX
   HX - HEAT INDEX
  VSB - VISIBILITY




USA.gov is the U.S. government's official web portal to all federal, state and local government web resources and services.